Kirksville, MO

4:21 AM CDT on May 30, 2017 (GMT -0500)
Kirksville Regional

Weather History for KIRK - April, 2013

Change the Weather History Date:

Sunday, April 7, 2013

  Actual Average Record
Temperature  
Mean Temperature 58 °F 49 °F  
Max Temperature 76 °F 60 °F 81 °F (1922)
Min Temperature 40 °F 38 °F 17 °F (2007)
Degree Days  
Heating Degree Days 7 16  
Month to date heating degree days 139 119  
Since 1 July heating degree days 5501 5406  
Cooling Degree Days 0 0  
Month to date cooling degree days 0 0  
Year to date cooling degree days 0 0  
Growing Degree Days 8 (Base 50)    
Moisture  
Dew Point 43 °F    
Average Humidity 57    
Maximum Humidity 89    
Minimum Humidity 25    
Precipitation  
Precipitation 0.37 in 0.10 in 0.96 in (1948)
Month to date precipitation 0.37 0.52  
Year to date precipitation 9.16 5.87  
Sea Level Pressure  
Sea Level Pressure 29.84 in    
Wind  
Wind Speed 8 mph (SE)    
Max Wind Speed 17 mph    
Max Gust Speed 23 mph    
Visibility 9 miles    
Events Rain , Thunderstorm    
T = Trace of Precipitation, MM = Missing Value Source: NWS Daily Summary

Daily Weather History Graph

Daily Weather History Graph

Search for Another Location

Airport or City:

Trip Planner

Search our weather history database for the weather conditions in past years. The results will help you decide how hot, cold, wet, or windy it might be!

Date:

Astronomy

Apr. 07, 2013 Rise Set
Actual Time 6:44 AM CDT 7:40 PM CDT
Civil Twilight 6:16 AM CDT 8:08 PM CDT
Nautical Twilight 5:43 AM CDT 8:41 PM CDT
Astronomical Twilight 5:09 AM CDT 9:15 PM CDT
Moon 5:02 AM CDT (4/7) 5:13 PM CDT (4/7)
Length of Visible Light 13h 52m
Length of Day
12h 56m
Waning Crescent, 8% of the Moon is Illuminated
Apr 7
Waning Crescent
Apr 10
New
Apr 18
First Quarter
Apr 25
Full
May 2
Last Quarter

Hourly Weather History & Observations

Time (CDT) Temp. Windchill Dew Point Humidity Pressure Visibility Wind Dir Wind Speed Gust Speed Precip Events Conditions
12:55 AM 48.9 °F - 39.0 °F 69% 29.81 in 10.0 mi WSW 4.6 mph - N/A   Clear
1:55 AM 45.0 °F 42.6 °F 37.9 °F 76% 29.83 in 10.0 mi West 4.6 mph - N/A   Clear
2:55 AM 45.0 °F - 39.0 °F 80% 29.83 in 10.0 mi Calm Calm - N/A   Clear
3:55 AM 44.1 °F 40.8 °F 39.0 °F 82% 29.85 in 10.0 mi NNE 5.8 mph - N/A   Clear
4:55 AM 44.1 °F 42.5 °F 39.0 °F 82% 29.87 in 10.0 mi NE 3.5 mph - N/A   Clear
5:55 AM 41.0 °F 38.0 °F 37.9 °F 89% 29.88 in 9.0 mi ENE 4.6 mph - N/A   Clear
6:55 AM 43.0 °F 40.3 °F 39.0 °F 86% 29.89 in 8.0 mi East 4.6 mph - N/A   Clear
7:55 AM 46.9 °F - 42.1 °F 83% 29.91 in 6.0 mi East 3.5 mph - N/A   Haze
8:55 AM 52.0 °F - 42.1 °F 69% 29.92 in 9.0 mi ESE 8.1 mph - N/A   Clear
9:55 AM 55.0 °F - 42.1 °F 62% 29.93 in 10.0 mi SE 6.9 mph - N/A   Clear
10:55 AM 60.1 °F - 42.1 °F 51% 29.94 in 10.0 mi ESE 6.9 mph - N/A   Clear
11:55 AM 64.9 °F - 43.0 °F 45% 29.93 in 10.0 mi SE 6.9 mph - N/A   Clear
12:55 PM 69.1 °F - 42.1 °F 38% 29.90 in 10.0 mi South 9.2 mph - N/A   Clear
1:55 PM 71.1 °F - 42.1 °F 35% 29.88 in 10.0 mi SSE 6.9 mph - N/A   Clear
2:55 PM 72.0 °F - 41.0 °F 33% 29.86 in 10.0 mi SE 5.8 mph - N/A   Clear
3:55 PM 75.0 °F - 37.9 °F 26% 29.83 in 10.0 mi SSE 6.9 mph - N/A   Clear
4:55 PM 73.0 °F - 41.0 °F 31% 29.81 in 10.0 mi South 11.5 mph 18.4 mph N/A   Clear
5:55 PM 72.0 °F - 41.0 °F 33% 29.81 in 10.0 mi SSE 16.1 mph - N/A   Clear
6:55 PM 70.0 °F - 43.0 °F 38% 29.79 in 10.0 mi SE 9.2 mph - N/A   Clear
7:55 PM 64.0 °F - 44.1 °F 48% 29.76 in 10.0 mi ESE 9.2 mph - N/A   Clear
8:55 PM 63.0 °F - 45.0 °F 52% 29.75 in 10.0 mi ESE 9.2 mph - N/A   Mostly Cloudy
9:55 PM 63.0 °F - 45.0 °F 52% 29.73 in 10.0 mi SE 13.8 mph - N/A   Mostly Cloudy
10:55 PM 57.9 °F - 52.0 °F 81% 29.75 in 5.0 mi South 13.8 mph - 0.03 in Rain Rain
11:23 PM 57.2 °F - 53.6 °F 88% 29.75 in 5.0 mi South 13.8 mph 21.9 mph 0.09 in Rain , Thunderstorm Rain
11:47 PM 57.2 °F - 53.6 °F 88% 29.77 in 5.0 mi South 11.5 mph - 0.18 in Rain Rain
11:55 PM 57.0 °F - 54.0 °F 89% 29.78 in 5.0 mi South 11.5 mph - 0.20 in Rain Rain